| time (UTC) | temp F | wind direction | speed MPH | gust MPH | rain 1hr in | rain 24hr in | rain mn in | humidity % | barometer mb |
| 20260507060053 | 38 | 0 | 0.0 | 0.0 | 0.00 | 0.02 | 0.00 | 94 | 1015.1 |
| 20260507054607 | 38 | 0 | 0.0 | 0.0 | 0.00 | 0.08 | 0.00 | 94 | 1015.1 |
| 20260507053102 | 39 | 0 | 0.0 | 0.0 | 0.00 | 0.08 | 0.00 | 93 | 1015.0 |
| 20260507051600 | 39 | 0 | 0.0 | 0.0 | 0.00 | 0.08 | 0.00 | 94 | 1014.9 |
| 20260507050057 | 39 | 0 | 0.0 | 1.0 | 0.00 | 0.08 | 0.00 | 94 | 1014.9 |
| 20260507044606 | 39 | 0 | 0.0 | 0.0 | 0.00 | 0.16 | 0.00 | 93 | 1014.8 |
| 20260507043054 | 40 | 0 | 0.0 | 0.0 | 0.00 | 0.16 | 0.00 | 93 | 1014.7 |
| 20260507041604 | 40 | 0 | 0.0 | 0.0 | 0.00 | 0.16 | 0.00 | 93 | 1014.8 |
| 20260507040057 | 40 | 0 | 0.0 | 0.0 | 0.00 | 0.16 | 0.00 | 92 | 1014.7 |
| 20260507034549 | 40 | 0 | 0.0 | 0.0 | 0.00 | 0.27 | 0.16 | 91 | 1014.9 |
| 20260507033048 | 41 | 0 | 0.0 | 0.0 | 0.00 | 0.27 | 0.16 | 91 | 1014.9 |
| 20260507031551 | 42 | 0 | 0.0 | 0.0 | 0.00 | 0.27 | 0.16 | 90 | 1014.8 |
| 20260507030054 | 43 | 0 | 0.0 | 0.0 | 0.00 | 0.27 | 0.16 | 90 | 1014.8 |
| 20260507024556 | 44 | 0 | 0.0 | 0.0 | 0.00 | 0.42 | 0.16 | 89 | 1014.7 |
| 20260507023051 | 44 | 0 | 0.0 | 0.0 | 0.00 | 0.42 | 0.16 | 87 | 1014.7 |
| 20260507021622 | 45 | 0 | 0.0 | 0.0 | 0.00 | 0.42 | 0.16 | 83 | 1014.6 |
| 20260507020110 | 46 | 0 | 0.0 | 1.0 | 0.00 | 0.42 | 0.16 | 81 | 1014.6 |
| 20260507014620 | 46 | 0 | 0.0 | 0.0 | 0.00 | 0.46 | 0.16 | 80 | 1014.5 |
| 20260507013051 | 47 | 0 | 0.0 | 1.0 | 0.00 | 0.46 | 0.16 | 79 | 1014.4 |
| 20260507011559 | 49 | 0 | 0.0 | 0.0 | 0.00 | 0.46 | 0.16 | 77 | 1014.2 |
| 20260507010052 | 50 | 0 | 0.0 | 0.0 | 0.00 | 0.46 | 0.16 | 76 | 1014.1 |
| 20260507004552 | 52 | 0 | 0.0 | 1.0 | 0.00 | 0.55 | 0.16 | 75 | 1013.8 |
| 20260507003053 | 53 | 284 | 0.0 | 3.0 | 0.00 | 0.55 | 0.16 | 72 | 1013.7 |
| 20260507001602 | 53 | 0 | 0.0 | 3.0 | 0.00 | 0.55 | 0.16 | 73 | 1013.5 |
| 20260507000121 | 54 | 0 | 0.0 | 8.0 | 0.00 | 0.55 | 0.16 | 73 | 1013.4 |
| 20260506234618 | 54 | 269 | 1.0 | 3.0 | 0.00 | 0.69 | 0.16 | 71 | 1013.3 |
| 20260506233055 | 54 | 267 | 2.0 | 10.0 | 0.00 | 0.69 | 0.16 | 68 | 1013.3 |
| 20260506231555 | 56 | 271 | 4.0 | 9.0 | 0.00 | 0.69 | 0.16 | 65 | 1013.3 |
| 20260506230100 | 55 | 278 | 1.0 | 4.0 | 0.00 | 0.69 | 0.16 | 70 | 1013.3 |
| 20260506224553 | 55 | 271 | 2.0 | 10.0 | 0.00 | 0.75 | 0.16 | 67 | 1013.5 |
| 20260506223052 | 56 | 298 | 3.0 | 9.0 | 0.00 | 0.75 | 0.16 | 64 | 1013.7 |
| 20260506221600 | 54 | 0 | 0.0 | 4.0 | 0.00 | 0.75 | 0.16 | 67 | 1013.8 |
| 20260506220050 | 55 | 283 | 3.0 | 10.0 | 0.00 | 0.75 | 0.16 | 65 | 1013.9 |
| 20260506214547 | 55 | 278 | 5.0 | 13.0 | 0.00 | 0.81 | 0.16 | 64 | 1013.7 |
| 20260506213059 | 55 | 273 | 2.0 | 11.0 | 0.00 | 0.81 | 0.16 | 67 | 1013.3 |
| 20260506211554 | 55 | 295 | 0.0 | 7.0 | 0.00 | 0.81 | 0.16 | 67 | 1013.3 |
| 20260506210055 | 55 | 325 | 4.0 | 10.0 | 0.00 | 0.81 | 0.16 | 72 | 1013.4 |
| 20260506204556 | 55 | 273 | 2.0 | 8.0 | 0.00 | 0.83 | 0.16 | 71 | 1013.3 |
| 20260506203053 | 55 | 284 | 5.0 | 10.0 | 0.00 | 0.83 | 0.16 | 71 | 1013.5 |
| 20260506201557 | 55 | 278 | 1.0 | 10.0 | 0.00 | 0.83 | 0.16 | 71 | 1013.5 |
| 20260506200055 | 55 | 272 | 3.0 | 9.0 | 0.00 | 0.83 | 0.16 | 72 | 1013.7 |
| 20260506194552 | 55 | 0 | 0.0 | 6.0 | 0.00 | 0.90 | 0.16 | 71 | 1013.6 |
| 20260506193057 | 55 | 277 | 4.0 | 10.0 | 0.00 | 0.90 | 0.16 | 69 | 1013.5 |
| 20260506191559 | 55 | 282 | 0.0 | 6.0 | 0.00 | 0.90 | 0.16 | 73 | 1013.4 |
| 20260506190056 | 55 | 279 | 1.0 | 9.0 | 0.00 | 0.90 | 0.16 | 73 | 1013.6 |
| 20260506184555 | 54 | 288 | 5.0 | 10.0 | 0.00 | 1.00 | 0.16 | 72 | 1013.5 |
| 20260506183102 | 54 | 0 | 0.0 | 7.0 | 0.00 | 1.00 | 0.16 | 76 | 1013.5 |
| 20260506181601 | 54 | 273 | 1.0 | 6.0 | 0.00 | 1.00 | 0.16 | 75 | 1013.5 |
| 20260506180051 | 54 | 278 | 0.0 | 11.0 | 0.00 | 1.00 | 0.16 | 76 | 1013.6 |
| 20260506174550 | 54 | 262 | 2.0 | 6.0 | 0.00 | 1.00 | 0.16 | 71 | 1013.4 |
| 20260506173116 | 54 | 271 | 2.0 | 4.0 | 0.00 | 1.00 | 0.16 | 71 | 1013.5 |
| 20260506171557 | 55 | 0 | 0.0 | 3.0 | 0.00 | 1.00 | 0.16 | 73 | 1013.8 |
| 20260506170104 | 55 | 0 | 0.0 | 5.0 | 0.00 | 1.00 | 0.16 | 72 | 1013.7 |
| 20260506164554 | 56 | 44 | 1.0 | 5.0 | 0.00 | 1.00 | 0.16 | 71 | 1013.6 |
| 20260506163059 | 57 | 0 | 0.0 | 3.0 | 0.00 | 1.00 | 0.16 | 75 | 1013.2 |
| 20260506161600 | 56 | 0 | 0.0 | 3.0 | 0.00 | 1.00 | 0.16 | 75 | 1013.5 |
| 20260506160050 | 55 | 0 | 0.0 | 2.0 | 0.00 | 1.00 | 0.16 | 75 | 1013.5 |
| 20260506154608 | 55 | 277 | 0.0 | 2.0 | 0.00 | 1.00 | 0.16 | 72 | 1013.4 |
| 20260506153049 | 56 | 0 | 0.0 | 4.0 | 0.00 | 1.00 | 0.16 | 77 | 1013.3 |
| 20260506151555 | 54 | 0 | 0.0 | 7.0 | 0.00 | 1.00 | 0.16 | 80 | 1013.2 |
| 20260506150050 | 54 | 0 | 1.0 | 3.0 | 0.00 | 1.00 | 0.16 | 78 | 1013.0 |
| 20260506144601 | 54 | 100 | 0.0 | 4.0 | 0.00 | 1.00 | 0.16 | 83 | 1013.0 |
| 20260506143056 | 54 | 0 | 0.0 | 3.0 | 0.00 | 1.00 | 0.16 | 80 | 1012.9 |
| 20260506141600 | 53 | 217 | 0.0 | 2.0 | 0.00 | 1.00 | 0.16 | 82 | 1012.8 |
| 20260506140051 | 51 | 0 | 0.0 | 3.0 | 0.00 | 1.00 | 0.16 | 80 | 1012.4 |
| 20260506134551 | 50 | 0 | 0.0 | 2.0 | 0.00 | 1.00 | 0.16 | 84 | 1012.6 |
| 20260506133102 | 48 | 274 | 0.0 | 4.0 | 0.00 | 1.00 | 0.16 | 86 | 1012.7 |
| 20260506131553 | 47 | 0 | 0.0 | 2.0 | 0.00 | 1.00 | 0.16 | 93 | 1012.6 |
| 20260506130047 | 46 | 0 | 0.0 | 3.0 | 0.00 | 1.00 | 0.16 | 95 | 1012.4 |
| 20260506124546 | 46 | 285 | 0.0 | 0.0 | 0.00 | 1.00 | 0.16 | 96 | 1012.6 |
| 20260506123050 | 46 | 0 | 0.0 | 1.0 | 0.00 | 1.00 | 0.16 | 97 | 1012.2 |
| 20260506121550 | 44 | 0 | 0.0 | 3.0 | 0.00 | 1.00 | 0.16 | 97 | 1011.8 |
| 20260506120049 | 43 | 291 | 0.0 | 3.0 | 0.00 | 1.00 | 0.16 | 97 | 1012.0 |
| 20260506114551 | 43 | 0 | 0.0 | 0.0 | 0.00 | 1.00 | 0.16 | 97 | 1011.2 |
| 20260506113056 | 42 | 0 | 0.0 | 0.0 | 0.00 | 1.00 | 0.16 | 96 | 1010.8 |
| 20260506111551 | 42 | 0 | 0.0 | 0.0 | 0.00 | 1.00 | 0.16 | 96 | 1010.7 |
| 20260506110050 | 42 | 0 | 0.0 | 0.0 | 0.00 | 1.00 | 0.16 | 96 | 1010.6 |
| 20260506104614 | 42 | 0 | 0.0 | 0.0 | 0.00 | 1.01 | 0.16 | 96 | 1009.9 |
| 20260506103046 | 42 | 0 | 0.0 | 0.0 | 0.00 | 1.01 | 0.16 | 96 | 1010.0 |
| 20260506101553 | 42 | 0 | 0.0 | 0.0 | 0.00 | 1.01 | 0.16 | 96 | 1010.3 |
| 20260506100050 | 42 | 0 | 0.0 | 0.0 | 0.00 | 1.01 | 0.16 | 96 | 1009.8 |
| 20260506094552 | 42 | 0 | 0.0 | 0.0 | 0.00 | 1.02 | 0.16 | 96 | 1009.5 |
| 20260506093051 | 42 | 0 | 0.0 | 1.0 | 0.00 | 1.02 | 0.16 | 96 | 1009.6 |
| 20260506091548 | 41 | 0 | 0.0 | 0.0 | 0.00 | 1.02 | 0.16 | 96 | 1009.3 |
| 20260506090056 | 42 | 0 | 0.0 | 0.0 | 0.00 | 1.02 | 0.16 | 96 | 1009.4 |
| 20260506084551 | 42 | 0 | 0.0 | 2.0 | 0.00 | 1.11 | 0.16 | 96 | 1009.6 |
| 20260506083052 | 41 | 0 | 0.0 | 1.0 | 0.00 | 1.11 | 0.16 | 96 | 1009.3 |
| 20260506081558 | 41 | 0 | 0.0 | 1.0 | 0.01 | 1.11 | 0.16 | 96 | 1009.2 |
| 20260506080106 | 41 | 0 | 0.0 | 3.0 | 0.02 | 1.11 | 0.16 | 95 | 1009.0 |
| 20260506073051 | 41 | 70 | 1.0 | 5.0 | 0.02 | 1.48 | 0.16 | 95 | 1008.7 |
| 20260506071610 | 42 | 0 | 0.0 | 4.0 | 0.01 | 1.47 | 0.15 | 95 | 1009.4 |
| 20260506061551 | 42 | 0 | 1.0 | 4.0 | 0.04 | 1.62 | 0.14 | 96 | 1009.1 |